Location: Montbazon
(47.2835°N, 0.6999°E)
Time: 16:24:38
(UTC+00:00)

Cosmos 2233 Rocket - Pass Details

Date: 08 November 2025
Orbit: 952 x 989 km, 82.9° (Epoch: 09 December)

Event Time Altitude Azimuth Distance (km) Brightness Sun altitude
Rises 05:06:25 0° 351° (N) 3,714 6.9 -17.9°
Reaches altitude 10° 05:08:57 10° 353° (N) 2,759 6.2 -17.5°
Maximum altitude 05:15:19 82° 81° (E) 1,000 4.1 -16.4°
Drops below altitude 10° 05:21:35 10° 170° (S) 2,723 6.6 -15.4°
Sets 05:24:04 0° 171° (S) 3,661 7.2 -15.0°
